Station ALIA2 - 9457804 - Alitak, AK Image indicating link to RSS feed of recent meteorological observations for station ALIA2


Conditions at ALIA2 as of
(11:48 pm AKDT on 07/22/2024)
0748 GMT on 07/23/2024:
     

Click on the graph icon in the table below to see a time series plot of the last five days of that observation.

5-day plot - Wind Direction Wind Direction (WDIR): W ( 260 deg true )
5-day plot - Wind Speed Wind Speed (WSPD): 2.9 kts
5-day plot - Wind Gust Wind Gust (GST): 6.0 kts
5-day plot - Atmospheric Pressure Atmospheric Pressure (PRES):30.14 in
5-day plot - Air Temperature Air Temperature (ATMP): 52.2 °F
5-day plot - Water Temperature Water Temperature (WTMP): 53.4 °F
5-day plot - Wind Chill Wind Chill (CHILL): 51.8 °F
5-day plot - Wind Speed at 10 Meters Wind Speed at 10 meters (WSPD10M): 3.9 kts
5-day plot - Wind Speed at 20 Meters Wind Speed at 20 meters (WSPD20M): 3.9 kts
5-day plot -  Wind Speed, Wind Gust and Atmospheric Pressure Combined plot of Wind Speed, Gust, and Air Pressure
NOS Water Level Observation Network Water Level
Previous observations
TIME
(AKDT)
5-day plot - Wind Direction
WDIR
 
5-day plot - Wind Speed
WSPD
kts
5-day plot - Wind Gust
GST
kts
5-day plot - Wave Height
WVHT
ft
5-day plot - Dominant Wave Period
DPD
sec
5-day plot - Average Wave Period
APD
sec
5-day plot - Mean Wave Direction
MWD
 
5-day plot - Atmospheric Pressure
PRES
in
5-day plot - Pressure Tendency
PTDY
in
5-day plot - Air Temperature
ATMP
°F
5-day plot - Water Temperature
WTMP
°F
5-day plot - Dew Point
DEWP
°F
5-day plot - Salinity
SAL
psu
5-day plot - Visibility
VIS
nmi
5-day plot - Tide (above MLLW)
TIDE
ft
2024-07-22 11:42 pm W 4.1 7.0----30.14- 52.0 53.4----
2024-07-22 11:36 pm W 2.9 8.0----30.14- 52.2 53.4----
2024-07-22 11:30 pmWNW 5.1 8.9----30.14- 52.0 53.4----
2024-07-22 11:24 pmWNW 6.0 8.9----30.14- 51.6 53.4----
2024-07-22 11:18 pmNNW 4.1 6.0----30.14- 51.3 53.2----
2024-07-22 11:12 pmNNW 5.1 7.0----30.13- 51.3 53.2----
2024-07-22 11:06 pm NW 5.1 7.0----30.13- 51.3 53.2----
2024-07-22 11:00 pm NW 5.1 7.0----30.13+0.02 51.1 53.2----
2024-07-22 10:54 pm NW 4.1 6.0----30.13- 51.1 53.2----
2024-07-22 10:48 pm NW 4.1 6.0----30.13- 50.9 53.2----
2024-07-22 10:42 pmWNW 5.1 8.0----30.13- 50.7 53.2----
2024-07-22 10:36 pm NW 4.1 6.0----30.13- 50.7 53.2----
2024-07-22 10:30 pmWNW 4.1 6.0----30.13- 50.7 53.2----
2024-07-22 10:24 pm NW 4.1 7.0----30.13- 50.7 53.2----
2024-07-22 10:18 pm NW 4.1 8.0----30.13- 50.7 53.2----
2024-07-22 10:12 pmWNW 6.0 8.0----30.13- 50.7 53.1----
2024-07-22 10:06 pm W 2.9 7.0----30.12- 51.1 53.1----
2024-07-22 10:00 pmWNW 4.1 6.0----30.12+0.02 51.1 53.1----
2024-07-22 09:54 pmWNW 2.9 7.0----30.12- 50.9 53.1----
2024-07-22 09:48 pm NW 5.1 7.0----30.12- 51.1 52.9----
2024-07-22 09:42 pm W 1.9 4.1----30.12- 51.4 52.9----
2024-07-22 09:36 pmWNW 2.9 6.0----30.12- 51.3 52.9----
2024-07-22 09:30 pm W 6.0 8.0----30.12- 51.1 52.9----
2024-07-22 09:24 pm W 1.9 5.1----30.12- 51.6 52.9----
2024-07-22 09:18 pm W 4.1 6.0----30.11- 51.3 52.7----
2024-07-22 09:12 pm W 1.9 6.0----30.11- 51.6 52.7----
2024-07-22 09:06 pmWSW 5.1 5.1----30.11- 51.4 52.5----
2024-07-22 09:00 pm W 5.1 6.0----30.11+0.00 51.6 52.3----
2024-07-22 08:54 pm W 2.9 6.0----30.11- 52.0 52.3----
2024-07-22 08:48 pm W 4.1 4.1----30.11- 51.8 52.3----
2024-07-22 08:42 pm W 1.9 2.9----30.11- 52.0 52.3----
2024-07-22 08:36 pm W 1.9 6.0----30.11- 52.0 52.2----
2024-07-22 08:30 pm W 4.1 5.1----30.11- 52.0 52.0----
2024-07-22 08:24 pm W 4.1 5.1----30.11- 52.0 51.8----
2024-07-22 08:18 pm NW 4.1 6.0----30.11- 52.2 51.8----
2024-07-22 08:12 pmWNW 4.1 6.0----30.11- 52.3 51.8----
2024-07-22 08:06 pm W 1.9 7.0----30.11- 52.3 51.8----
2024-07-22 08:00 pm W 2.9 6.0----30.11+0.00 52.5 51.8----
2024-07-22 07:54 pmWNW 2.9 5.1----30.11- 52.7 52.0----
2024-07-22 07:48 pm W 2.9 5.1----30.11- 52.7 52.0----
2024-07-22 07:42 pm W 2.9 5.1----30.11- 52.7 52.2----
2024-07-22 07:36 pmWNW 2.9 6.0----30.11- 52.9 52.2----
2024-07-22 07:30 pm NW 4.1 6.0----30.11- 52.5 52.3----
2024-07-22 07:24 pmWNW 4.1 7.0----30.11- 52.7 52.5----
2024-07-22 07:18 pm W 5.1 7.0----30.11- 52.5 52.5----
2024-07-22 07:12 pm W 4.1 7.0----30.10- 52.9 52.5----
2024-07-22 07:06 pm W 2.9 6.0----30.10- 52.9 52.7----
2024-07-22 07:00 pmWNW 2.9 5.1----30.11+0.01 53.1 52.7----
2024-07-22 06:54 pmWNW 4.1 6.0----30.11- 52.9 52.5----
2024-07-22 06:48 pm W 5.1 7.0----30.11- 52.9 52.0----
2024-07-22 06:42 pmWNW 2.9 6.0----30.11- 53.4 52.0----
2024-07-22 06:36 pm W 1.9 6.0----30.11- 53.2 51.8----
2024-07-22 06:30 pm W 5.1 6.0----30.11- 52.7 51.8----
2024-07-22 06:24 pm W 5.1 7.0----30.11- 53.1 51.1----
2024-07-22 06:18 pm W 2.9 5.1----30.11- 53.4 50.9----
2024-07-22 06:12 pm W 4.1 6.0----30.11- 53.1 50.9----
2024-07-22 06:06 pm W 4.1 7.0----30.11- 52.7 52.3----
2024-07-22 06:00 pm W 2.9 7.0----30.11+0.02 53.2 52.9----
2024-07-22 05:54 pm W 5.1 7.0----30.11- 52.7 52.5----
2024-07-22 05:48 pm W 5.1 7.0----30.11- 53.2 52.2----
2024-07-22 05:42 pm W 5.1 6.0----30.11- 53.4 52.0----
2024-07-22 05:36 pm W 1.9 5.1----30.11- 54.7 51.6----
2024-07-22 05:30 pm W 1.9 5.1----30.11- 54.9 51.4----
2024-07-22 05:24 pm W 1.9 6.0----30.11- 55.0 51.3----
2024-07-22 05:18 pmWNW 4.1 6.0----30.11- 54.7 51.3----
2024-07-22 05:12 pmWNW 4.1 7.0----30.11- 54.9 51.4----
2024-07-22 05:06 pm W 2.9 8.0----30.11- 54.9 51.4----
2024-07-22 05:00 pm W 2.9 7.0----30.11+0.02 54.9 51.8----
2024-07-22 04:54 pm W 2.9 6.0----30.11- 55.0 51.8----
2024-07-22 04:48 pm W 2.9 7.0----30.10- 54.9 52.2----
2024-07-22 04:42 pm W 1.9 7.0----30.10- 55.2 52.7----
2024-07-22 04:36 pm W 4.1 8.0----30.10- 55.2 52.9----
2024-07-22 04:30 pm W 2.9 7.0----30.10- 55.6 53.2----
2024-07-22 04:24 pm W 2.9 8.0----30.10- 55.6 53.1----
2024-07-22 04:18 pmWNW 4.1 8.0----30.10- 55.2 53.1----
2024-07-22 04:12 pm W 1.9 8.0----30.10- 55.8 53.1----
2024-07-22 04:06 pmWNW 1.9 7.0----30.10- 55.8 53.1----
2024-07-22 04:00 pm W 2.9 7.0----30.09+0.01 55.6 52.9----
2024-07-22 03:54 pm W 1.9 6.0----30.09- 55.6 52.7----
2024-07-22 03:48 pmWNW 2.9 6.0----30.10-- 52.2----
2024-07-22 03:42 pmWNW 4.1 8.0----30.10-- 53.1----
2024-07-22 03:36 pmWNW 6.0 8.9----30.10-- 53.4----
2024-07-22 03:30 pmWNW 5.1 8.0----30.09-- 53.4----
2024-07-22 03:24 pmWNW 2.9 8.9----30.10-- 53.1----
2024-07-22 03:18 pm W 2.9 6.0----30.09- 54.9 52.9----
2024-07-22 03:12 pm W 1.9 6.0----30.09- 55.0 52.5----
2024-07-22 03:06 pmWNW 2.9 8.0----30.09- 55.0 52.5----
2024-07-22 03:00 pm W 2.9 8.9----30.09+0.01 55.2 52.5----
2024-07-22 02:54 pm W 1.9 6.0----30.09- 55.8 52.2----
2024-07-22 02:48 pmWNW 2.9 6.0----30.09- 55.4 52.2----
2024-07-22 02:42 pmWNW 2.9 6.0----30.09- 55.6 52.0----
2024-07-22 02:36 pm W 2.9 5.1----30.09- 55.0 52.0----
2024-07-22 02:30 pm W 2.9 6.0----30.09- 54.9 52.0----
2024-07-22 02:24 pm NW 4.1 6.0----30.09- 54.9 52.0----
2024-07-22 02:18 pm W 2.9 6.0----30.09- 54.7 52.0----
2024-07-22 02:12 pm W 1.9 5.1----30.09- 55.0 52.0----
2024-07-22 02:06 pm W 1.9 4.1----30.09- 55.2 52.0----
2024-07-22 02:00 pm W 1.9 6.0----30.09+0.01 54.9 51.8----
2024-07-22 01:54 pmWNW 4.1 7.0----30.09- 54.3 51.8----
2024-07-22 01:48 pmWNW 6.0 7.0----30.09- 53.6 52.0----
2024-07-22 01:42 pmWNW 4.1 8.0----30.08- 54.1 52.2----
2024-07-22 01:36 pm W 4.1 7.0----30.08- 54.7 52.2----
2024-07-22 01:30 pm-------30.08-- 52.3----
2024-07-22 01:24 pm-------30.08-- 52.5----
2024-07-22 01:18 pm W 2.9 5.1----30.08- 54.9 52.7----
2024-07-22 01:12 pm W 2.9 6.0----30.08- 54.5 52.7----
2024-07-22 01:06 pm W 6.0 8.0----30.08- 54.1 52.9----
2024-07-22 01:00 pm W 4.1 7.0----30.08+0.02- 53.1----
2024-07-22 12:54 pm W 1.9 7.0----30.09-- 53.1----
2024-07-22 12:48 pm W 2.9 7.0----30.08- 54.9 53.2----
2024-07-22 12:42 pm W 4.1 6.0----30.08- 55.2 53.4----
2024-07-22 12:36 pm W 4.1 6.0----30.08- 55.0 53.4----
2024-07-22 12:30 pm W 2.9 6.0----30.08- 55.8 53.4----
2024-07-22 12:24 pm W 4.1 6.0----30.08- 55.4 53.6----
2024-07-22 12:18 pm W 2.9 5.1----30.08- 55.6 53.8----
2024-07-22 12:12 pm W 2.9 6.0----30.08- 55.8 54.0----
2024-07-22 12:06 pm W 5.1 6.0----30.08- 54.9 54.0----
2024-07-22 12:00 pm W 4.1 6.0----30.08+0.02 55.4 54.0----
2024-07-22 11:54 am W 4.1 7.0----30.08- 55.4 54.0----
2024-07-22 11:48 am W 6.0 7.0----30.08-- 54.1----
2024-07-22 11:42 am W 4.1 6.0----30.08-- 54.5----
2024-07-22 11:36 am W 1.9 2.9----30.08-- 55.0----
2024-07-22 11:30 am NW 1.0 2.9----30.08- 57.9 55.0----
2024-07-22 11:24 am W 1.0 1.9----30.08- 57.2 55.2----
2024-07-22 11:18 am W 1.0 2.9----30.08- 56.7 55.2----
2024-07-22 11:12 am W 1.0 1.9----30.08- 56.7 55.4----
2024-07-22 11:06 am W 1.9 2.9----30.08- 56.1 55.0----
2024-07-22 11:00 am W 1.9 2.9----30.08+0.02 55.8 54.9----
2024-07-22 10:54 am W 2.9 4.1----30.08- 55.2 54.9----
2024-07-22 10:48 am W 4.1 5.1----30.08- 54.9 54.7----
2024-07-22 10:42 amWNW 1.9 4.1----30.08- 55.6 54.7----
2024-07-22 10:36 am W 1.9 5.1----30.07- 55.2 54.5----
2024-07-22 10:30 am W 1.9 4.1----30.07- 55.4 54.1----
2024-07-22 10:24 am W 2.9 5.1----30.07- 54.9 54.0----
2024-07-22 10:18 am W 1.9 4.1----30.06- 55.0 54.0----
2024-07-22 10:12 am W 1.9 5.1----30.06- 55.4 54.0----
2024-07-22 10:06 amWNW 4.1 6.0----30.06- 54.9 54.0----
2024-07-22 10:00 amWNW 1.9 5.1----30.06+0.00 55.2 53.6----
2024-07-22 09:54 amWNW 5.1 6.0----30.06- 55.2 53.6----
2024-07-22 09:48 am NW 4.1 6.0----30.06- 55.0 53.6----
2024-07-22 09:42 am W 2.9 6.0----30.06- 55.0 53.6----
2024-07-22 09:36 am W 2.9 7.0----30.06- 55.0 53.4----
2024-07-22 09:30 amWNW 1.9 5.1----30.06- 55.6 53.4----
2024-07-22 09:24 am W 1.9 4.1----30.06- 55.8 53.2----
2024-07-22 09:18 amWNW 1.9 2.9----30.06- 55.6 53.2----
2024-07-22 09:12 am- 0.0 1.9----30.06- 55.6 53.2----
2024-07-22 09:06 amESE 1.9 4.1----30.06- 53.6 53.2----
2024-07-22 09:00 am SE 2.9 4.1----30.06+0.00 54.1 53.2----
2024-07-22 08:54 am- 0.0 2.9----30.05- 55.2 53.2----
2024-07-22 08:48 amSSE 1.9 2.9----30.05- 54.1 53.2----
2024-07-22 08:42 am E 1.9 2.9----30.06- 54.3 52.9----
2024-07-22 08:36 am- 0.0 4.1----30.06- 54.7 53.1----
2024-07-22 08:30 am NW 1.9 2.9----30.05- 53.4 52.7----
2024-07-22 08:24 amWNW 1.9 2.9----30.06- 52.7 52.7----
2024-07-22 08:18 amWNW 2.9 4.1----30.05- 51.8 52.7----
2024-07-22 08:12 amWNW 2.9 5.1----30.06- 51.3 52.7----
2024-07-22 08:06 am W 1.9 4.1----30.06- 51.3 52.5----
2024-07-22 08:00 amWNW 2.9 5.1----30.06-0.01 50.9 52.0----
2024-07-22 07:54 am NW 4.1 5.1----30.05- 51.1 52.2----
2024-07-22 07:48 am NW 2.9 4.1----30.06- 51.4 52.2----
2024-07-22 07:42 am NW 2.9 6.0----30.06- 51.8 52.3----
2024-07-22 07:36 am NW 4.1 7.0----30.06- 52.0 52.3----
2024-07-22 07:30 amNNW 6.0 7.0----30.06- 52.0 52.0----
2024-07-22 07:24 amNNW 5.1 8.0----30.05- 52.0 52.0----
2024-07-22 07:18 amNNW 6.0 8.0----30.05- 51.8 51.8----
2024-07-22 07:12 amNNW 6.0 8.0----30.05- 51.3 51.8----
2024-07-22 07:06 am NW 4.1 6.0----30.05- 51.3 51.8----
2024-07-22 07:00 am NW 1.9 5.1----30.05-0.02 50.9 51.4----
2024-07-22 06:54 am NW 1.9 5.1----30.06- 51.3 51.4----
2024-07-22 06:48 am NW 2.9 5.1----30.06- 51.6 51.4----
2024-07-22 06:42 am NW 1.9 4.1----30.06- 51.4 51.6----
2024-07-22 06:36 am NW 1.0 2.9----30.06- 51.6 51.8----
2024-07-22 06:30 amNNW 1.9 4.1----30.06- 51.8 52.0----
2024-07-22 06:24 amNNW 1.9 4.1----30.06- 51.8 51.8----
2024-07-22 06:18 amNNW 2.9 6.0----30.06- 52.0 51.8----
2024-07-22 06:12 amNNW 4.1 5.1----30.06- 52.2 51.8----
2024-07-22 06:06 amNNW 5.1 8.0----30.06- 52.3 51.8----
2024-07-22 06:00 amNNW 6.0 8.0----30.06-0.01 52.2 51.8----
2024-07-22 05:54 amNNW 5.1 7.0----30.06- 51.8 51.6----
2024-07-22 05:48 amNNW 5.1 8.0----30.06- 51.8 51.8----
2024-07-22 05:42 amNNW 6.0 8.9----30.06- 52.0 51.6----
2024-07-22 05:36 amNNW 5.1 7.0----30.06- 52.0 51.6----
2024-07-22 05:30 amNNW 5.1 7.0----30.06- 52.0 51.6----
2024-07-22 05:24 amNNW 6.0 8.0----30.06- 52.2 51.4----
2024-07-22 05:18 amNNW 6.0 8.9----30.06- 52.2 51.6----
2024-07-22 05:12 amNNW 5.1 7.0----30.06- 52.0 51.6----
2024-07-22 05:06 am NW 2.9 5.1----30.06- 52.0 51.4----
2024-07-22 05:00 am NW 2.9 8.9----30.07-0.02 52.2 51.4----
2024-07-22 04:54 am NW 6.0 9.9----30.06- 52.3 51.4----
2024-07-22 04:48 am NW 6.0 8.9----30.06- 52.3 51.4----
2024-07-22 04:42 amNNW 6.0 8.9----30.06- 52.3 51.3----
2024-07-22 04:36 amNNW 7.0 8.9----30.06- 52.5 51.3----
2024-07-22 04:30 amNNW 6.0 8.9----30.06- 52.5 51.3----
2024-07-22 04:24 amNNW 8.0 9.9----30.07- 52.7 51.1----
2024-07-22 04:18 am NW 7.0 9.9----30.07- 52.7 51.1----
2024-07-22 04:12 amNNW 7.0 8.9----30.07- 52.7 50.9----
2024-07-22 04:06 amNNW 6.0 8.9----30.07- 52.9 50.9----
2024-07-22 04:00 amNNW 7.0 9.9----30.08-0.01 52.9 50.9----
2024-07-22 03:54 am NW 6.0 8.0----30.08- 52.9 50.9----
2024-07-22 03:48 am NW 6.0 8.0----30.08- 52.9 50.9----
2024-07-22 03:42 am NW 6.0 9.9----30.08- 52.9 50.9----
2024-07-22 03:36 amNNW 7.0 8.9----30.08- 52.9 50.9----
2024-07-22 03:30 amNNW 7.0 12.0----30.08- 53.1 50.9----
2024-07-22 03:24 amNNW 8.0 11.1----30.08- 53.1 50.9----
2024-07-22 03:18 amNNW 7.0 9.9----30.08- 53.1 50.9----
2024-07-22 03:12 am NW 7.0 11.1----30.08- 53.1 50.9----
2024-07-22 03:06 amNNW 8.0 11.1----30.08- 53.1 50.9----
2024-07-22 03:00 am NW 7.0 11.1----30.08-0.01 53.1 50.7----
2024-07-22 02:54 am NW 8.9 11.1----30.08- 53.1 50.7----
2024-07-22 02:48 amNNW 8.0 9.9----30.08- 53.1 50.7----
2024-07-22 02:42 amNNW 6.0 8.9----30.08- 53.1 50.9----
2024-07-22 02:36 am NW 5.1 8.9----30.08- 53.1 50.9----
2024-07-22 02:30 am NW 5.1 8.9----30.08- 52.9 50.9----
2024-07-22 02:24 am NW 7.0 9.9----30.08- 52.7 51.1----
2024-07-22 02:18 amNNW 8.0 8.9----30.08- 52.5 51.1----
2024-07-22 02:12 amNNW 8.0 9.9----30.09- 52.7 51.1----
2024-07-22 02:06 amNNW 7.0 11.1----30.09- 52.9 51.3----
2024-07-22 02:00 amNNW 6.0 8.9----30.09-0.02 52.7 51.3----
2024-07-22 01:54 amNNW 7.0 9.9----30.09- 52.7 51.3----
2024-07-22 01:48 amNNW 8.0 9.9----30.09- 52.7 51.3----
2024-07-22 01:42 amNNW 7.0 8.9----30.09- 52.3 51.3----
2024-07-22 01:36 amNNW 7.0 9.9----30.09- 52.3 51.3----
2024-07-22 01:30 amNNW 7.0 8.9----30.09- 52.2 51.1----
2024-07-22 01:24 amNNW 7.0 8.9----30.09- 51.8 51.1----
2024-07-22 01:18 amNNW 6.0 8.0----30.09- 52.0 51.1----
2024-07-22 01:12 am NW 6.0 8.9----30.09- 52.0 51.1----
2024-07-22 01:06 amNNW 7.0 9.9----30.09- 52.3 50.9----
2024-07-22 01:00 amNNW 8.0 11.1----30.09-0.02 52.7 50.9----
2024-07-22 12:54 amNNW 7.0 11.1----30.09- 53.1 50.9----
2024-07-22 12:48 amNNW 7.0 9.9----30.09- 53.1 50.9----
2024-07-22 12:42 am NW 5.1 8.9----30.09- 53.4 51.1----
2024-07-22 12:36 amNNW 6.0 9.9----30.09- 53.6 51.4----
2024-07-22 12:30 amNNW 7.0 8.9----30.09- 53.8 51.8----
2024-07-22 12:24 amNNW 6.0 9.9----30.09- 53.6 52.0----
2024-07-22 12:18 amNNW 7.0 9.9----30.09- 54.0 52.2----
2024-07-22 12:12 amNNW 6.0 9.9----30.09- 53.8 52.3----
2024-07-22 12:06 amNNW 6.0 9.9----30.09- 53.8 52.3----
2024-07-22 12:00 amNNW 5.1 9.9----30.09-0.03 53.6 52.3----
2024-07-21 11:54 pm N 7.0 9.9----30.09- 53.4 52.5----